Flag for Germany Weather past 2 weeks in Hofheim am Taunus, Hesse, Germany

Now
61 °F

Overcast.


Feels Like: 61 °F
Forecast: 62 / 74 °F
Wind: 2 mph from Southeast

Location: Wiesbaden Airport

Current Time: Sep 19, 2014 at 6:34:59 AM

Latest Report: Sep 19, 2014 at 5:58 AM


Visibility: N/A

Pressure: 29.88 "Hg

Humidity: 95%

Dew point: 60 °F

Location of Hofheim am TaunusLocation

Historic Weather in Hofheim am Taunus — Graph

°F

Hofheim am Taunus temperature yesterday

Maximum temperature yesterday: 75 °F (at 2:58 PM)
Minimum temperature yesterday: 62 °F (at 5:58 AM)
Average temperature yesterday: 67 °F

Past Weeks' High & Low Weather Summary

 TemperatureHumidityPressure
High79 °F (Sep 5, 4:58 PM)100% (Sep 5, 7:58 AM)30.20 "Hg (Sep 5, 7:58 AM)
Low52 °F (Sep 11, 2:58 AM)38% (Sep 9, 4:58 PM)29.86 "Hg (Sep 18, 2:58 AM)
Average64 °F77%30.01 "Hg
* Reported Sep 4 4:58 AM — Sep 19 4:58 AM, Hofheim am Taunus, Weather by CustomWeather, © 2014

Note: Actual official high and low records may vary slightly from our data, if they occured in-between our weather recording intervals... More about our weather records

Advertising

Hofheim am Taunus weather history for previous 24 hours

 ConditionsComfort  
Time TempWeatherWind HumidityBarometerVisibility
4:58 AM
Sep 19
60 °FPassing clouds.No wind96%29.87 "HgN/A
3:58 AM62 °FOvercast.2 mph94%29.87 "HgN/A
2:58 AM64 °FClear.1 mph88%29.88 "HgN/A
1:58 AM65 °FOvercast.5 mph90%29.88 "HgN/A
1:02 AM64 °FPassing clouds.5 mph88%29.89 "HgN/A
12:58 AM64 °FPassing clouds.3 mph88%29.88 "HgN/A
11:58 PM
Sep 18
68 °FOvercast.3 mph83%29.89 "HgN/A
10:58 PM67 °FOvercast.5 mph83%29.88 "HgN/A
9:58 PM68 °FPassing clouds.6 mph83%29.88 "HgN/A
9:01 PM70 °FPassing clouds.8 mph78%29.88 "HgN/A
7:58 PM70 °FBroken clouds.6 mph78%29.88 "HgN/A
4:58 PM75 °FSunny.6 mph65%29.86 "HgN/A
3:58 PM75 °FPassing clouds.5 mph61%29.86 "HgN/A
2:58 PM75 °FSunny.6 mph61%29.87 "HgN/A
1:58 PM72 °FPassing clouds.No wind69%29.88 "HgN/A
12:58 PM70 °FPassing clouds.1 mph73%29.88 "HgN/A
11:58 AM66 °FScattered clouds.3 mph83%29.90 "HgN/A
10:58 AM66 °FPassing clouds.5 mph79%29.89 "HgN/A
9:58 AM64 °FPassing clouds.6 mph85%29.89 "HgN/A
8:58 AM63 °FScattered clouds.6 mph87%29.88 "HgN/A
7:58 AM63 °FPassing clouds.8 mph88%29.88 "HgN/A
6:58 AM63 °FLight rain. Clear.3 mph88%29.87 "HgN/A
Weather by CustomWeather, © 2014

See weather overviewHow to use our weather pages